Location: Allonne
(49.4086°N, 2.1143°E)
Time: 14:11:43
(UTC+00:00)

DMSP B5D2-2 - Pass Details

Date: 12 August 2024
Orbit: 787 x 802 km, 98.3° (Epoch: 09 September)

Event Time Altitude Azimuth Distance (km) Brightness Sun altitude
Rises 02:09:34 0° 127° (SE) 3,277 7.2 -19.4°
Reaches altitude 10° 02:12:13 10° 115° (ESE) 2,350 6.6 -19.1°
Maximum altitude 02:16:25 26° 61° (ENE) 1,523 6.2 -18.7°
Drops below altitude 10° 02:20:39 10° 6° (N) 2,361 7.4 -18.3°
Sets 02:23:18 0° 354° (N) 3,295 8.0 -18.0°
